Location: Austin
(30.3000°N, 97.7500°W)
Time: 03:17:50
(UTC-05:00)

Cosmos 1459 Rocket - Pass Details

Date: 18 March 2023
Orbit: 936 x 1000 km, 83.0° (Epoch: 01 April)

Event Time Altitude Azimuth Distance (km) Brightness Sun altitude
Rises 21:03:43 0° 1° (N) 3,596 7.1 -18.6°
Reaches altitude 10° 21:06:16 10° 6° (N) 2,649 6.3 -19.1°
Maximum altitude 21:12:08 52° 82° (E) 1,152 4.0 -20.3°
Enters shadow 21:15:07 28° 144° (SE) 1,677 4.8 -21.0°
